1998-067LU

Last updated on Thu May 25 2017 00:15:03 GMT+0000 (Coordinated Universal Time)

1 42713U 98067LU 17144.51350322 .00010953 00000-0 16790-3 0 9999 2 42713 51.6368 156.2787 0003098 159.8414 301.9501 15.54870570 827
UTC large
Height (km)
Speed (km/s)
/
Latitude / Longitude
Inclination (degrees)
Orbital Period (minutes)
Azimuth
Elevation
Range (km)
Doppler Factor

Next 0 passes for location: London (51.5072 / 0.1276)

Sorry there are no passes over London.